Location: Mountain Grove
(34.0887°N, 86.6172°W)
Time: 22:04:53
(UTC+00:00)

IRS-1D - Pass Details

Date: 14 July 2020
Orbit: 739 x 817 km, 98.6° (Epoch: 08 August)

Event Time Altitude Azimuth Distance (km) Brightness Sun altitude
Rises 07:24:14 0° 21° (NNE) 3,180 7.9 -30.2°
Reaches altitude 10° 07:26:39 10° 29° (NNE) 2,252 6.8 -30.0°
Enters shadow 07:30:55 41° 87° (E) 1,071 4.4 -29.6°
